Location: Alameda Airport (historical)
(35.2014°N, 106.6553°W)
Time: 05:32:59
(UTC+00:00)

Daily predictions for brighter satellites

Satellite Brightness Start Highest point End
(mag) Time Altitude Azimuth Time Altitude Azimuth Time Altitude Azimuth
CZ-2D R/B 4.3 00:46:36 10° SE 00:49:45 24° ENE 00:52:54 10° NNE
SMAP 3.4 00:45:52 10° S 00:50:30 74° W 00:55:10 10° NNW
AQUARIUS 4.4 00:49:48 10° S 00:54:16 77° WSW 00:58:47 10° NNW
CZ-2C R/B 3.7 00:51:50 10° SE 00:56:28 34° ENE 01:01:20 10° N
H-2A R/B 3.3 00:54:05 10° ESE 00:57:26 18° ENE 01:00:49 10° NNE
Cosmos 1844 Rocket 2.9 00:53:00 10° S 00:58:27 51° ESE 01:03:55 10° NNE
YAOGAN 1 3.9 00:58:40 10° ESE 01:01:39 19° ENE 01:04:38 10° NNE
Cosmos 1892 Rocket 3.5 00:57:42 10° S 01:02:01 77° E 01:06:22 10° N
Cosmos 2279 Rocket 4.0 00:58:43 10° N 01:05:00 78° E 01:11:14 10° S
Cosmos 1606 Rocket 3.6 01:01:17 10° N 01:05:41 90° ENE 01:10:06 10° S
Cosmos 773 Rocket 3.9 01:00:52 10° NNW 01:06:01 73° ENE 01:11:07 10° SSE
H-2A R/B 3.7 01:02:28 10° N 01:06:32 37° WNW 01:10:31 10° SW
NOSS 2-1 (C) 4.5 01:05:25 10° SSE 01:08:09 20° ESE 01:09:57 14° ENE
CZ-4B R/B 3.9 01:03:55 10° S 01:09:19 60° W 01:14:52 10° NNW
Cosmos 1818 3.5 01:05:42 10° SSW 01:11:06 81° ESE 01:16:34 10° NNE
X-37B 1.5 01:09:05 10° W 01:12:08 42° NNW 01:14:40 14° NE
NOSS 2-1 (D) 4.2 01:11:03 10° S 01:14:01 24° ESE 01:15:41 17° ENE
Cosmos 2228 3.7 01:11:57 10° NNW 01:16:08 58° W 01:20:20 10° S
SJ 16-02 1.3 01:14:12 10° S 01:18:33 65° ESE 01:22:55 10° NNE
USA 267 4.0 01:13:38 12° ENE 01:19:01 36° SE 01:24:54 10° S
Meteor 2-10 Rocket 3.5 01:15:32 10° N 01:20:57 63° E 01:26:06 10° SSE
SKYMED 2 3.8 01:18:22 10° N 01:22:42 72° WNW 01:27:01 10° SSW
Cosmos 1455 2.9 01:20:27 10° NNE 01:23:54 32° E 01:27:20 10° SE
Cosmos 1340 3.9 01:21:57 10° SE 01:24:46 20° E 01:25:06 20° E
DELTA 2 R/B (1) 4.3 01:20:01 10° WNW 01:25:26 54° SSW 01:30:50 10° SE
Cosmos 1703 3.9 01:22:39 10° SSE 01:26:06 31° E 01:28:44 15° NE
MOS 1 Rocket 3.0 01:22:48 10° NNE 01:27:06 90° NNW 01:31:24 10° SSW
ISS -2.2 01:24:21 10° W 01:27:21 30° NW 01:29:48 13° NNE
Iridium 4 Rocket 4.5 01:24:11 10° NNE 01:28:46 26° E 01:33:02 10° SE
Cosmos 1937 Rocket 4.4 01:31:50 10° SSE 01:36:13 27° E 01:37:47 23° ENE
Cosmos 2058 Rocket 3.1 01:33:24 10° N 01:37:55 84° W 01:42:25 10° S
ERS-2 2.4 01:36:34 10° N 01:40:10 66° WNW 01:43:45 10° SSW
Meteor 2-1 Rocket 4.1 01:34:55 10° N 01:40:23 59° E 01:45:47 10° SSE
Cosmos 1092 Rocket 4.0 01:34:32 10° SSE 01:40:34 56° E 01:46:35 10° NNE
Cosmos 1939 Rocket 4.2 01:36:51 10° S 01:40:47 43° W 01:44:43 10° NNW
Cosmos 1538 Rocket 3.9 01:35:41 10° NNW 01:40:52 85° ENE 01:46:02 10° SSE
Aureole 3 2.7 01:41:09 10° N 01:44:21 52° E 01:47:16 10° SSE
Okean 1-7 Rocket 4.5 01:40:32 10° SSW 01:44:56 53° W 01:49:25 10° N
Cosmos 44 3.1 01:45:21 10° SSW 01:49:57 73° ESE 01:52:41 26° NE
PSLV R/B 4.3 01:47:26 10° N 01:51:38 66° WNW 01:55:47 10° SSW
Cosmos 1328 3.9 01:49:01 10° S 01:52:54 51° E 01:53:53 40° NE
CZ-4 R/B 1.3 01:49:36 10° SSE 01:53:44 90° SW 01:57:50 10° NNW
Cosmos 1626 Rocket 3.5 01:50:09 10° S 01:54:30 83° W 01:58:55 10° N
BREEZE-M DEB (TANK) 3.8 01:52:38 10° WNW 01:55:28 36° SSW 02:00:42 10° SE
CZ-4B R/B 4.4 01:58:28 10° NW 02:00:18 14° WNW 02:02:07 10° WSW
Cosmos 1689 Rocket 3.5 01:59:18 17° NNW 02:01:06 35° WNW 02:03:43 10° SW
ARGOS 3.1 01:55:59 10° SSE 02:01:10 55° ENE 02:06:24 10° N
Lacrosse 5 2.4 01:56:29 10° NNW 02:01:11 37° NE 02:01:18 37° NE
Hubble Space Telescope 2.0 02:00:49 10° WSW 02:04:31 31° S 02:05:22 29° SSE
NOSS 2-1 (E) 2.9 02:05:31 10° SW 02:08:59 72° WNW 02:09:01 72° NW
CSL-04 Debris 4.0 02:06:56 10° SSE 02:12:17 71° ENE 02:17:40 10° N
Cosmos 990 Rocket 4.1 02:08:14 10° SSW 02:13:27 75° WNW 02:16:55 22° N
Cosmos 1758 Rocket 3.9 02:12:12 10° S 02:15:33 48° SSE 02:15:33 48° SSE
CZ-2C R/B 2.6 02:13:16 24° NNE 02:16:42 72° ESE 02:22:18 10° S
Okean-O 3.3 02:13:11 10° S 02:17:31 55° W 02:21:52 10° NNW
Milstar 3 4.4 02:19:58 10° SSW 02:25:00 17° SSE 02:26:14 17° SE
Cosmos 858 Rocket 4.4 02:24:45 10° SSW 02:30:02 90° SE 02:30:46 67° NNE
EXPRESS MD2 4.1 02:26:09 10° NW 02:30:47 49° NNW 02:30:47 49° NNW
Cosmos 2026 Rocket 4.2 02:28:35 10° SSW 02:34:37 68° W 02:40:45 10° N
H-2A R/B 3.1 02:31:47 10° S 02:36:27 43° W 02:41:15 10° NNW
YAOGAN 1 4.3 02:33:36 10° SSW 02:37:28 32° W 02:41:22 10° NNW
Meteor 2-19 Rocket 4.4 02:31:28 10° S 02:37:37 87° W 02:41:19 26° N
Helios 1A Rocket 4.3 02:33:53 10° S 02:37:44 39° W 02:41:39 10° NNW
Meteor 1-11 4.2 02:35:57 10° SSW 02:41:41 79° W 02:43:13 50° N
Cosmos 923 Rocket 4.5 02:37:16 10° NNW 02:42:32 60° WSW 02:47:42 10° S
Cosmos 1898 Rocket 4.4 02:38:09 10° SW 02:43:12 46° WNW 02:45:28 29° NNW
NOSS 3-1 (C) 4.2 02:37:18 10° NNW 02:44:34 53° NE 02:44:34 53° NE
Cosmos 1680 Rocket 3.9 02:44:35 10° NNW 02:48:55 57° NW 02:48:55 57° NW
Cosmos 2278 Rocket 2.8 02:46:13 10° SSW 02:50:05 46° S 02:50:05 46° S
USA 267 3.6 03:01:00 50° N 03:02:06 56° NW 03:08:26 10° WSW
Cosmos 2344 4.4 03:29:53 10° NNW 03:40:05 84° NE 03:40:05 84° NE
CZ-3A R/B 4.4 11:14:15 45° SSW 11:15:35 46° SSW 11:25:12 10° SE
SJ 16-02 3.5 11:31:06 22° SE 11:31:06 22° SE 11:32:51 10° SE
USA 267 4.2 11:24:35 10° SSE 11:28:18 34° S 11:28:18 34° S
Chandra Rocket (1) 3.9 11:35:57 27° SE 11:35:57 27° SE 11:37:48 10° ESE
Cosmos 1844 Rocket 4.0 11:41:38 28° S 11:41:38 28° S 11:44:09 10° SSE
Atlas Centaur 2 3.5 11:39:07 41° SSW 11:40:49 47° SSE 11:48:50 10° E
Cosmos 2278 Rocket 4.3 11:44:32 10° N 11:48:58 23° ENE 11:53:22 10° ESE
SL-4 R/B 4.2 11:52:48 18° SE 11:53:30 19° SE 11:56:15 10° E
Cosmos 468 Rocket 4.5 11:55:29 50° NNE 11:55:29 50° NNE 11:59:20 10° NNE
Cosmos 2237 Rocket 3.3 11:49:22 10° S 11:54:39 43° ESE 12:00:00 10° NE
